Location: Czu?�w
(50.1404°N, 18.9919°E)
Time: 03:45:48
(UTC+00:00)

Meteor 2-8 Rocket - Pass Details

Date: 27 October 2020
Orbit: 937 x 957 km, 82.5° (Epoch: 24 November)

Event Time Altitude Azimuth Distance (km) Brightness Sun altitude
Rises 16:39:18 0° 175° (S) 3,602 7.5 -11.8°
Reaches altitude 10° 16:41:48 10° 172° (S) 2,665 6.8 -12.2°
Maximum altitude 16:47:46 60° 94° (E) 1,086 4.5 -13.2°
Drops below altitude 10° 16:53:48 10° 16° (NNE) 2,695 6.6 -14.2°
Sets 16:56:21 0° 13° (NNE) 3,647 7.3 -14.6°
